Flag for Morocco Weather past 2 weeks in Casablanca, Morocco

Now
77 °F

Scattered clouds.


Feels Like: 79 °F
Forecast: 65 / 76 °F
Wind: 12 mph from West

Location: Casablanca Airport

Current Time: May 29, 2015 at 3:18:06 PM

Latest Report: May 29, 2015 at 3:00 PM


Visibility: 5 mi

Pressure: 29.98 "Hg

Humidity: 57%

Dew point: 61 °F

Location of CasablancaLocation

Historic Weather in Casablanca — Graph

°F

Casablanca temperature yesterday

Maximum temperature yesterday: 75 °F (at 12:00 AM)
Minimum temperature yesterday: 68 °F (at 7:00 AM)
Average temperature yesterday: 73 °F

Past Weeks' High & Low Weather Summary

 TemperatureHumidityPressure
High81 °F (May 27, 2:00 PM)94% (May 17, 8:00 AM)30.12 "Hg (May 17, 8:00 AM)
Low61 °F (May 16, 7:00 AM)44% (May 26, 3:00 PM)29.83 "Hg (May 18, 1:00 PM)
Average70 °F71%29.94 "Hg
* Reported May 14 2:00 PM — May 29 2:00 PM, Casablanca, Weather by CustomWeather, © 2015

Note: Actual official high and low records may vary slightly from our data, if they occured in-between our weather recording intervals... More about our weather records

Advertising

Casablanca weather history for previous 24 hours

 ConditionsComfort  
Time TempWeatherWind HumidityBarometerVisibility
2:00 PM
Fri, May 29
77 °FScattered clouds.12 mph57%29.98 "Hg5 mi
1:00 PM77 °FScattered clouds.12 mph57%29.98 "Hg5 mi
12:00 PM73 °FScattered clouds.14 mph65%29.98 "Hg5 mi
11:00 AM72 °FScattered clouds.12 mph69%29.98 "Hg5 mi
10:00 AM70 °FScattered clouds.9 mph78%29.92 "Hg5 mi
9:00 AM66 °FPartly sunny.9 mph88%29.89 "Hg5 mi
8:00 AM66 °FPartly sunny.9 mph88%29.89 "Hg5 mi
7:00 AM66 °FScattered clouds.12 mph88%29.89 "Hg5 mi
1:00 AM68 °FPassing clouds.14 mph78%29.89 "HgN/A
11:00 PM
Thu, May 28
68 °FPassing clouds.9 mph83%29.86 "HgN/A
10:00 PM70 °FPassing clouds.9 mph78%29.86 "HgN/A
9:00 PM70 °FPassing clouds.14 mph73%29.86 "HgN/A
7:00 PM73 °FPassing clouds.22 mph69%29.86 "HgN/A
6:00 PM73 °FPassing clouds.22 mph69%29.86 "HgN/A
5:00 PM75 °FPassing clouds.20 mph65%29.86 "HgN/A
4:00 PM75 °FPassing clouds.20 mph65%29.86 "HgN/A
3:00 PM75 °FSunny.20 mph65%29.86 "Hg10 mi
Weather by CustomWeather, © 2015

See weather overviewHow to use our weather pages